Weather History for Tehachapi, CA

Change the Weather History Date:

Monday, December 24, 2012

  Actual Average Record
Temperature  
Mean Temperature 39 °F -  
Max Temperature 48 °F 50 °F 64 °F (2013)
Min Temperature 30 °F 30 °F 19 °F (2011)
Degree Days  
Heating Degree Days 26    
Moisture  
Dew Point 37 °F    
Average Humidity 91    
Maximum Humidity 100    
Minimum Humidity 66    
Precipitation  
Precipitation 0.59 in - - ()
Sea Level Pressure  
Sea Level Pressure 30.07 in    
Wind  
Wind Speed 16 mph (WNW)    
Max Wind Speed 24 mph    
Max Gust Speed 38 mph    
Visibility 7 miles    
Events Fog , Rain    
Averages and records for this station are not official NWS values.
T = Trace of Precipitation, MM = Missing Value Source: NWS Daily Summary

Daily Weather History Graph

Daily Weather History Graph

Search for Another Location

Airport:

Trip Planner

Search our weather history database for the weather conditions in past years. The results will help you decide how hot, cold, wet, or windy it might be!

Date:

Astronomy

Dec. 24, 2012 Rise Set
Actual Time 6:59 AM PST 4:47 PM PST
Civil Twilight 6:31 AM PST 5:15 PM PST
Nautical Twilight 5:59 AM PST 5:47 PM PST
Astronomical Twilight 5:28 AM PST 6:18 PM PST
Moon 2:15 PM PST (12/24) 3:45 AM PST (12/24)
Length of Visible Light 10h 44m
Length of Day
9h 47m
Waxing Gibbous, 89% of the Moon is Illuminated
Dec 24
Waxing Gibbous
Dec 28
Full
Jan 4
Last Quarter
Jan 11
New
Jan 18
First Quarter

Hourly Weather History & Observations

Time (PST) Temp. Windchill Dew Point Humidity Pressure Visibility Wind Dir Wind Speed Gust Speed Precip Events Conditions
12:15 AM 48.2 °F - 37.4 °F 66% 30.00 in 10.0 mi WNW 19.6 mph 29.9 mph N/A   Scattered Clouds
12:35 AM 46.4 °F 40.4 °F 37.4 °F 71% 30.00 in 10.0 mi WNW 13.8 mph 23.0 mph N/A   Scattered Clouds
12:55 AM 48.2 °F - 37.4 °F 66% 29.99 in 10.0 mi WNW 16.1 mph 27.6 mph N/A   Mostly Cloudy
1:15 AM 48.2 °F - 37.4 °F 66% 29.98 in 10.0 mi West 12.7 mph 19.6 mph N/A   Mostly Cloudy
1:35 AM 46.4 °F 40.1 °F 41.0 °F 81% 29.98 in 4.0 mi West 15.0 mph 21.9 mph 0.01 in Rain Light Rain
1:55 AM 44.6 °F 37.4 °F 41.0 °F 87% 29.99 in 3.0 mi WNW 16.1 mph 20.7 mph 0.03 in Rain Light Rain
2:15 AM 44.6 °F 37.4 °F 41.0 °F 87% 30.01 in 1.8 mi NW 16.1 mph 27.6 mph 0.03 in Rain Rain
2:35 AM 42.8 °F 36.6 °F 41.0 °F 93% 29.99 in 3.0 mi WNW 11.5 mph 17.3 mph 0.06 in Rain Light Rain
2:55 AM 44.6 °F 37.2 °F 41.0 °F 87% 30.00 in 2.5 mi West 17.3 mph 24.2 mph 0.09 in Rain Light Rain
3:15 AM 44.6 °F 38.4 °F 42.8 °F 93% 29.99 in 2.5 mi West 12.7 mph 17.3 mph N/A Rain Light Rain
3:35 AM 44.6 °F 37.2 °F 42.8 °F 93% 29.99 in 2.5 mi West 17.3 mph 25.3 mph 0.01 in Rain Light Rain
3:55 AM 46.4 °F 38.5 °F 44.6 °F 93% 30.00 in 2.0 mi West 21.9 mph 34.5 mph 0.05 in Rain Rain
4:15 AM 46.4 °F 39.5 °F 44.6 °F 93% 29.99 in 10.0 mi West 17.3 mph 38.0 mph N/A Rain Light Rain
4:35 AM 44.6 °F 36.6 °F 44.6 °F 100% 29.98 in 2.0 mi West 19.6 mph 24.2 mph 0.06 in Rain Light Rain
4:55 AM 44.6 °F 37.4 °F 44.6 °F 100% 29.99 in 1.5 mi NW 16.1 mph 20.7 mph 0.17 in Rain Rain
5:15 AM 44.6 °F 36.9 °F 44.6 °F 100% 29.99 in 5.0 mi NW 18.4 mph 23.0 mph N/A Rain Light Rain
5:35 AM 44.6 °F 37.4 °F 44.6 °F 100% 30.00 in 2.0 mi WNW 16.1 mph 28.8 mph 0.02 in Rain Light Rain
5:55 AM 44.6 °F 37.2 °F 44.6 °F 100% 30.01 in 1.5 mi WNW 17.3 mph 25.3 mph 0.07 in Rain Rain
6:15 AM 44.6 °F 36.9 °F 42.8 °F 93% 30.02 in 1.5 mi NW 18.4 mph 26.5 mph 0.05 in Rain Rain
6:35 AM 42.8 °F 35.4 °F 42.8 °F 100% 30.03 in 1.8 mi WNW 15.0 mph - 0.10 in Rain Light Rain
6:55 AM 42.8 °F 35.8 °F 42.8 °F 100% 30.04 in 2.0 mi WNW 13.8 mph 19.6 mph 0.14 in Rain Rain
7:15 AM 42.8 °F 36.2 °F 42.8 °F 100% 30.04 in 2.0 mi WNW 12.7 mph 20.7 mph N/A Rain Light Rain
7:35 AM 41.0 °F 31.9 °F 41.0 °F 100% 30.05 in 1.5 mi NW 19.6 mph 26.5 mph 0.01 in Rain Light Rain
7:55 AM 41.0 °F 32.2 °F 41.0 °F 100% 30.07 in 1.0 mi WNW 18.4 mph 26.5 mph 0.03 in Rain Light Rain
8:15 AM 41.0 °F 33.1 °F 41.0 °F 100% 30.08 in 1.2 mi WNW 15.0 mph 24.2 mph N/A Rain Light Rain
8:35 AM 41.0 °F 31.6 °F 41.0 °F 100% 30.10 in 1.5 mi NW 20.7 mph 28.8 mph 0.01 in Rain Light Rain
8:55 AM 39.2 °F 29.0 °F 39.2 °F 100% 30.11 in 1.8 mi NW 21.9 mph 27.6 mph 0.01 in Rain Light Rain
9:15 AM 39.2 °F 29.6 °F 39.2 °F 100% 30.12 in 3.0 mi NW 19.6 mph 25.3 mph N/A Rain Light Rain
9:35 AM 39.2 °F 30.2 °F 39.2 °F 100% 30.14 in 4.0 mi NW 17.3 mph 26.5 mph N/A Rain Light Rain
9:55 AM 39.2 °F 29.3 °F 39.2 °F 100% 30.13 in 0.8 mi NW 20.7 mph 25.3 mph N/A Rain Light Rain
10:15 AM 39.2 °F 29.0 °F 39.2 °F 100% 30.12 in 3.0 mi NW 21.9 mph 27.6 mph N/A   Mostly Cloudy
10:35 AM 39.2 °F 29.0 °F 39.2 °F 100% 30.11 in 0.5 mi NW 21.9 mph 29.9 mph N/A Fog Fog
10:55 AM 39.2 °F 29.6 °F 39.2 °F 100% 30.11 in 3.0 mi WNW 19.6 mph 25.3 mph N/A   Overcast
11:15 AM 39.2 °F 29.3 °F 39.2 °F 100% 30.10 in 2.5 mi NW 20.7 mph 26.5 mph N/A   Overcast
11:35 AM 39.2 °F 28.5 °F 39.2 °F 100% 30.09 in 8.0 mi NW 24.2 mph 27.6 mph N/A   Overcast
11:55 AM 39.2 °F 29.0 °F 39.2 °F 100% 30.09 in 9.0 mi NW 21.9 mph 31.1 mph N/A   Overcast
12:15 PM 39.2 °F 28.7 °F 39.2 °F 100% 30.08 in 10.0 mi WNW 23.0 mph 31.1 mph N/A   Overcast
12:35 PM 39.2 °F 29.0 °F 37.4 °F 93% 30.07 in 10.0 mi NW 21.9 mph 27.6 mph N/A   Overcast
12:55 PM 39.2 °F 30.2 °F 37.4 °F 93% 30.06 in 10.0 mi NW 17.3 mph 25.3 mph N/A   Overcast
1:15 PM 39.2 °F 29.6 °F 37.4 °F 93% 30.05 in 10.0 mi NW 19.6 mph 23.0 mph N/A   Overcast
1:35 PM 39.2 °F 29.6 °F 37.4 °F 93% 30.05 in 10.0 mi NW 19.6 mph 25.3 mph N/A   Overcast
1:55 PM 39.2 °F 29.0 °F 35.6 °F 87% 30.05 in 10.0 mi NW 21.9 mph 25.3 mph N/A   Mostly Cloudy
2:15 PM 39.2 °F 29.0 °F 35.6 °F 87% 30.05 in 10.0 mi WNW 21.9 mph 27.6 mph N/A   Overcast
2:35 PM 39.2 °F 29.0 °F 35.6 °F 87% 30.05 in 10.0 mi WNW 21.9 mph 26.5 mph N/A   Overcast
2:55 PM 39.2 °F 29.8 °F 33.8 °F 81% 30.05 in 10.0 mi WNW 18.4 mph 25.3 mph N/A   Mostly Cloudy
3:15 PM 39.2 °F 29.8 °F 33.8 °F 81% 30.05 in 10.0 mi WNW 18.4 mph 25.3 mph N/A   Scattered Clouds
3:35 PM 39.2 °F 30.2 °F 33.8 °F 81% 30.04 in 10.0 mi WNW 17.3 mph - N/A   Partly Cloudy
3:55 PM 39.2 °F 30.2 °F 32.0 °F 75% 30.04 in 10.0 mi WNW 17.3 mph - N/A   Scattered Clouds
4:15 PM 39.2 °F 30.8 °F 32.0 °F 75% 30.04 in 10.0 mi WNW 15.0 mph 23.0 mph N/A   Overcast
4:35 PM 37.4 °F 30.3 °F 32.0 °F 81% 30.06 in 10.0 mi WNW 10.4 mph - N/A   Mostly Cloudy
4:55 PM 37.4 °F 28.9 °F 33.8 °F 87% 30.07 in 10.0 mi NW 13.8 mph 19.6 mph N/A   Mostly Cloudy
5:15 PM 37.4 °F 29.3 °F 33.8 °F 87% 30.09 in 10.0 mi WNW 12.7 mph - N/A   Mostly Cloudy
5:35 PM 37.4 °F 30.3 °F 35.6 °F 93% 30.10 in 10.0 mi West 10.4 mph - N/A   Overcast
5:55 PM 37.4 °F 28.9 °F 33.8 °F 87% 30.10 in 10.0 mi West 13.8 mph 18.4 mph N/A   Overcast
6:15 PM 37.4 °F 29.8 °F 35.6 °F 93% 30.10 in 10.0 mi WNW 11.5 mph - N/A   Overcast
6:35 PM 37.4 °F 31.4 °F 33.8 °F 87% 30.10 in 10.0 mi WNW 8.1 mph - N/A   Overcast
6:55 PM 37.4 °F 32.1 °F 33.8 °F 87% 30.10 in 10.0 mi NW 6.9 mph - N/A   Overcast
7:15 PM 35.6 °F 27.5 °F 33.8 °F 93% 30.12 in 10.0 mi WNW 11.5 mph - N/A   Overcast
7:35 PM 35.6 °F 28.6 °F 32.0 °F 87% 30.12 in 10.0 mi NW 9.2 mph - N/A   Mostly Cloudy
7:55 PM 35.6 °F 30.7 °F 32.0 °F 87% 30.12 in 9.0 mi WNW 5.8 mph - N/A   Scattered Clouds
8:15 PM 33.8 °F 30.8 °F 32.0 °F 93% 30.13 in 7.0 mi West 3.5 mph - N/A   Partly Cloudy
8:35 PM 32.0 °F 28.7 °F 32.0 °F 100% 30.13 in 8.0 mi South 3.5 mph - N/A   Clear
8:55 PM 32.0 °F 28.7 °F 32.0 °F 100% 30.13 in 9.0 mi SSW 3.5 mph - N/A   Clear
9:15 PM 30.2 °F - 28.4 °F 93% 30.14 in 8.0 mi Calm Calm - N/A   Clear
9:35 PM 32.0 °F 28.7 °F 30.2 °F 93% 30.14 in 10.0 mi SSE 3.5 mph - N/A   Clear
9:55 PM 30.2 °F 25.4 °F 28.4 °F 93% 30.14 in 10.0 mi East 4.6 mph - N/A   Clear
10:15 PM 30.2 °F 24.3 °F 28.4 °F 93% 30.13 in 7.0 mi SE 5.8 mph - N/A   Clear
10:35 PM 30.2 °F 24.3 °F 28.4 °F 93% 30.13 in 10.0 mi SE 5.8 mph - N/A   Clear
10:55 PM 30.2 °F 25.4 °F 28.4 °F 93% 30.13 in 10.0 mi SE 4.6 mph - N/A   Clear
11:15 PM 32.0 °F 24.8 °F 28.4 °F 87% 30.13 in 10.0 mi ESE 8.1 mph - N/A   Clear
11:35 PM 32.0 °F 22.5 °F 30.2 °F 93% 30.13 in 10.0 mi ESE 12.7 mph - N/A   Clear
11:55 PM 33.8 °F 26.4 °F 30.2 °F 87% 30.12 in 10.0 mi East 9.2 mph - N/A   Clear